Victoria, British Columbia

12:50 AM PDT on June 24, 2017 (GMT -0700)
Victoria International

Weather History for CYYJ - January, 2013

Change the Weather History Date:

Thursday, January 10, 2013

  Actual Average Record
Temperature  
Mean Temperature 36 °F -  
Max Temperature 43 °F 45 °F 50 °F (1999)
Min Temperature 29 °F 33 °F 24 °F (1998)
Degree Days  
Heating Degree Days 29    
Moisture  
Dew Point 30 °F    
Average Humidity 77    
Maximum Humidity 94    
Minimum Humidity 50    
Precipitation  
Precipitation 0.00 in 0.17 in - ()
Sea Level Pressure  
Sea Level Pressure 30.07 in    
Wind  
Wind Speed 5 mph ()    
Max Wind Speed 15 mph    
Max Gust Speed -    
Visibility 20.0 miles    
Events Snow    
Averages and records for this station are not official NWS values.
T = Trace of Precipitation, MM = Missing Value Source: Averaged Metar Reports

Daily Weather History Graph

Daily Weather History Graph

Search for Another Location

Airport or City:

Trip Planner

Search our weather history database for the weather conditions in past years. The results will help you decide how hot, cold, wet, or windy it might be!

Date:

Astronomy

Jan. 10, 2013 Rise Set
Actual Time 8:03 AM PST 4:39 PM PST
Civil Twilight 7:27 AM PST 5:15 PM PST
Nautical Twilight 6:48 AM PST 5:55 PM PST
Astronomical Twilight 6:10 AM PST 6:32 PM PST
Moon 6:48 AM PST (1/10) 3:55 PM PST (1/10)
Length of Visible Light 9h 47m
Length of Day
8h 35m
Waning Crescent, 1% of the Moon is Illuminated
Jan 10
Waning Crescent
Jan 11
New
Jan 18
First Quarter
Jan 26
Full
Feb 3
Last Quarter

Hourly Weather History & Observations

Time (PST) Temp. Windchill Dew Point Humidity Pressure Visibility Wind Dir Wind Speed Gust Speed Precip Events Conditions
12:00 AM 32.0 °F - 30.2 °F 93% 29.93 in 30.0 mi SW 2.3 mph - N/A   Partly Cloudy
1:00 AM 32.0 °F 26.4 °F 30.2 °F 93% 29.94 in 30.0 mi WNW 5.8 mph - N/A   Partly Cloudy
2:00 AM 32.0 °F 28.7 °F 30.2 °F 93% 29.97 in 30.0 mi WSW 3.5 mph - N/A   Mostly Cloudy
3:00 AM 32.0 °F 27.5 °F 30.2 °F 93% 29.99 in 30.0 mi West 4.6 mph - N/A   Scattered Clouds
4:00 AM 33 °F - 32 °F 94% 29.99 in 28 mi WSW 6.9 mph - -   Mostly Cloudy
4:00 AM 33.8 °F 27.7 °F 32.0 °F 93% 29.99 in 30.0 mi WSW 6.9 mph - N/A   Mostly Cloudy
5:00 AM 35.6 °F 31.7 °F 32.0 °F 87% 30.01 in 30.0 mi WSW 4.6 mph - N/A   Overcast
6:00 AM 33.8 °F 29.6 °F 32.0 °F 93% 30.01 in 30.0 mi WSW 4.6 mph - N/A   Mostly Cloudy
7:00 AM 32.0 °F 26.4 °F 30.2 °F 93% 30.04 in 30.0 mi West 5.8 mph - N/A   Mostly Cloudy
8:00 AM 35.6 °F 29.9 °F 32.0 °F 87% 30.06 in 30.0 mi West 6.9 mph - N/A   Mostly Cloudy
9:00 AM 33.8 °F 29.6 °F 32.0 °F 93% 30.08 in 30.0 mi West 4.6 mph - N/A   Mostly Cloudy
10:00 AM 36 °F - 33 °F 82% 30.09 in 28 mi West 6.9 mph - -   Mostly Cloudy
10:00 AM 35.6 °F 29.9 °F 32.0 °F 87% 30.09 in 30.0 mi West 6.9 mph - N/A   Mostly Cloudy
11:00 AM 39.2 °F 33.0 °F 30.2 °F 70% 30.10 in 30.0 mi NW 9.2 mph - N/A   Mostly Cloudy
12:00 PM 41.0 °F 35.8 °F 30.2 °F 65% 30.09 in 30.0 mi NW 8.1 mph - N/A   Mostly Cloudy
1:00 PM 41.0 °F 33.1 °F 28.4 °F 61% 30.08 in 30.0 mi NW 15.0 mph - N/A   Scattered Clouds
2:00 PM 42.8 °F 37.5 °F 28.4 °F 57% 30.08 in 30.0 mi NW 9.2 mph - N/A   Scattered Clouds
3:00 PM 42.8 °F 37.0 °F 28.4 °F 57% 30.09 in 30.0 mi North 10.4 mph - N/A   Mostly Cloudy
4:00 PM 39 °F - 27 °F 50% 30.10 in 28 mi NNW 6.9 mph - -   Scattered Clouds
4:00 PM 39.2 °F 34.2 °F 26.6 °F 61% 30.10 in 30.0 mi NNW 6.9 mph - N/A   Partly Cloudy
5:00 PM 39.2 °F 32.0 °F 28.4 °F 65% 30.11 in 30.0 mi NW 11.5 mph - N/A   Partly Cloudy
6:00 PM 39.2 °F 33.0 °F 26.6 °F 61% 30.12 in 30.0 mi NNW 9.2 mph - N/A   Scattered Clouds
7:00 PM 39.2 °F 33.6 °F 28.4 °F 65% 30.12 in 30.0 mi NW 8.1 mph - N/A   Mostly Cloudy
7:31 PM 35.6 °F 30.7 °F - N/A% - 30.0 mi West 5.8 mph - N/A   Mostly Cloudy
8:00 PM 35.6 °F 30.7 °F 28.4 °F 75% 30.13 in 30.0 mi NW 5.8 mph - N/A   Scattered Clouds
9:00 PM 37.4 °F 30.8 °F 28.4 °F 70% 30.14 in 30.0 mi NW 9.2 mph - N/A   Partly Cloudy
10:00 PM 36 °F - 28 °F 64% 30.15 in 28 mi North 4.6 mph - -   Mostly Cloudy
10:00 PM 35.6 °F 32.8 °F 28.4 °F 75% 30.15 in 30.0 mi NNW 3.5 mph - N/A   Mostly Cloudy
10:30 PM 35.6 °F 31.7 °F - N/A% - 20.0 mi NW 4.6 mph - N/A Snow Light Snow
11:00 PM 35.6 °F 32.8 °F 28.4 °F 75% 30.16 in 30.0 mi NW 3.5 mph - N/A   Scattered Clouds